Weather History for Montrose, CO

Change the Weather History Date:

Monday, May 5, 2014

  Actual Average Record
Temperature  
Mean Temperature 65 °F 55 °F  
Max Temperature 79 °F 69 °F 86 °F (2000)
Min Temperature 50 °F 40 °F 30 °F (1999)
Degree Days  
Heating Degree Days 0 10  
Month to date heating degree days 37 55  
Since 1 July heating degree days 5933 5993  
Cooling Degree Days 0 0  
Month to date cooling degree days 2 0  
Year to date cooling degree days 2 0  
Growing Degree Days 14 (Base 50)    
Moisture  
Dew Point 13 °F    
Average Humidity 18    
Maximum Humidity 29    
Minimum Humidity 6    
Precipitation  
Precipitation 0.00 in 0.04 in 0.67 in (2001)
Month to date precipitation 0.00 0.23  
Year to date precipitation 2.13 3.45  
Sea Level Pressure  
Sea Level Pressure 29.75 in    
Wind  
Wind Speed 11 mph (South)    
Max Wind Speed 25 mph    
Max Gust Speed 33 mph    
Visibility 10 miles    
Events      
T = Trace of Precipitation, MM = Missing Value Source: NWS Daily Summary

Daily Weather History Graph

Daily Weather History Graph

Search for Another Location

Airport:

Trip Planner

Search our weather history database for the weather conditions in past years. The results will help you decide how hot, cold, wet, or windy it might be!

Date:

Astronomy

May. 05, 2014 Rise Set
Actual Time 6:09 AM MDT 8:07 PM MDT
Civil Twilight 5:40 AM MDT 8:36 PM MDT
Nautical Twilight 5:05 AM MDT 9:11 PM MDT
Astronomical Twilight 4:27 AM MDT 9:49 PM MDT
Moon 11:32 AM MDT (5/5) 12:53 AM MDT (5/5)
Length of Visible Light 14h 55m
Length of Day
13h 57m
Waxing Crescent, 37% of the Moon is Illuminated
May 5
Waxing Crescent
May 6
First Quarter
May 14
Full
May 21
Last Quarter
May 28
New

Hourly Weather History & Observations

Time (MDT) Temp. Dew Point Humidity Pressure Visibility Wind Dir Wind Speed Gust Speed Precip Events Conditions
12:53 AM 57.9 °F 15.1 °F 19% 29.80 in 10.0 mi East 6.9 mph - N/A   Clear
1:53 AM 63.0 °F 12.0 °F 14% 29.79 in 10.0 mi East 11.5 mph - N/A   Clear
2:53 AM 55.9 °F 17.1 °F 22% 29.80 in 10.0 mi SSE 4.6 mph - N/A   Clear
3:53 AM 55.9 °F 16.0 °F 21% 29.82 in 10.0 mi ESE 5.8 mph - N/A   Clear
4:53 AM 50.0 °F 19.9 °F 31% 29.85 in 10.0 mi ESE 8.1 mph - N/A   Clear
5:53 AM 54.0 °F 17.1 °F 23% 29.85 in 10.0 mi ESE 8.1 mph - N/A   Clear
6:53 AM 55.9 °F 17.1 °F 22% 29.86 in 10.0 mi SE 5.8 mph - N/A   Clear
7:53 AM 57.0 °F 21.0 °F 25% 29.86 in 10.0 mi SE 8.1 mph - N/A   Clear
8:53 AM 63.0 °F 25.0 °F 24% 29.86 in 10.0 mi NE 3.5 mph - N/A   Clear
9:53 AM 70.0 °F 9.0 °F 9% 29.83 in 10.0 mi West 13.8 mph - N/A   Clear
10:53 AM 72.0 °F 8.1 °F 8% 29.82 in 10.0 mi SW 8.1 mph - N/A   Clear
12:53 PM 75.0 °F 7.0 °F 7% 29.77 in 10.0 mi SW 10.4 mph 21.9 mph N/A   Clear
1:53 PM 77.0 °F 8.1 °F 7% 29.72 in 10.0 mi South 16.1 mph 27.6 mph N/A   Clear
2:53 PM 77.0 °F 8.1 °F 7% 29.71 in 10.0 mi SW 12.7 mph 24.2 mph N/A   Clear
3:53 PM 77.0 °F 7.0 °F 7% 29.68 in 10.0 mi SW 19.6 mph 27.6 mph N/A   Clear
4:53 PM 75.0 °F 9.0 °F 8% 29.68 in 10.0 mi WSW 18.4 mph 25.3 mph N/A   Clear
5:53 PM 75.0 °F 9.0 °F 8% 29.65 in 10.0 mi SW 15.0 mph 33.4 mph N/A   Clear
6:53 PM 75.0 °F 7.0 °F 7% 29.64 in 10.0 mi SW 16.1 mph 24.2 mph N/A   Clear
7:53 PM 71.1 °F 9.0 °F 9% 29.65 in 10.0 mi SSW 9.2 mph - N/A   Clear
8:53 PM 64.0 °F 10.9 °F 13% 29.66 in 10.0 mi South 6.9 mph - N/A   Clear
10:53 PM 57.9 °F 12.9 °F 17% 29.64 in 10.0 mi SE 13.8 mph - N/A   Clear
11:53 PM 59.0 °F 14.0 °F 17% 29.62 in 10.0 mi SSE 15.0 mph - N/A   Clear